Wind_Speed
29 30 29 27 27 28 28 28 29 27 28 28 32 33 33 34 35 36 37 38 39 41 42 43 43 44 45 46 46 47 48 50 51 52 53 54 55 57 58 60 61 63 65 67
31 30 30 30 28 28 28 28 29 30 29 29 33 35 37 37 38 38 39 40 41 42 43 43 44 45 46 47 48 50 51 52 53 54 55 56 58 59 60 62 63 65 67 69
32 32 33 32 28 29 29 29 31 32 31 33 35 36 38 39 40 40 41 41 42 43 44 45 46 47 48 49 50 51 52 53 54 55 56 58 60 61 62 63 65 67 69 71
33 34 36 30 29 29 30 30 32 33 34 35 36 37 38 39 40 41 42 43 43 44 45 46 47 48 49 50 51 52 53 54 55 57 58 59 61 62 64 66 67 69 71 73
35 35 35 32 31 30 32 32 32 34 35 37 37 39 39 40 41 42 43 44 45 45 46 47 48 49 50 51 52 53 54 55 57 58 59 61 62 64 66 68 69 71 73 75
36 36 36 33 32 32 33 33 31 34 36 38 39 39 39 41 42 43 43 44 45 46 47 48 49 50 51 52 53 54 55 56 58 59 61 62 64 66 68 70 71 73 75 76
35 36 36 33 33 33 35 34 34 35 37 38 39 39 40 41 42 43 44 45 46 47 48 48 49 50 51 52 54 55 56 57 59 61 63 64 66 68 70 72 73 75 76 76
36 37 35 33 34 35 36 37 38 38 39 39 40 40 41 42 43 44 45 46 47 48 48 49 50 51 52 53 55 56 57 59 60 62 64 66 68 70 72 74 75 76 75 74
37 37 36 36 36 37 38 39 40 40 41 41 41 42 42 43 44 45 46 47 48 48 49 50 51 52 53 54 56 57 59 61 63 64 66 68 70 72 74 75 76 75 75 73
36 36 36 37 38 39 39 40 41 42 42 42 43 43 43 44 45 46 47 47 48 49 49 50 51 53 54 56 58 59 61 63 64 66 68 70 72 74 75 75 75 74 73 72
36 36 37 37 38 39 40 41 41 42 43 43 44 44 44 45 46 46 47 48 49 49 50 51 52 54 56 58 60 61 63 64 66 68 70 72 73 74 74 74 74 73 72 70
36 36 38 38 39 40 41 42 43 43 44 44 44 45 45 46 47 47 48 48 49 50 51 53 54 56 58 60 62 63 65 67 69 71 72 73 74 74 73 73 72 70 69 67
37 38 39 39 39 40 41 42 43 44 45 45 45 45 46 47 47 48 49 50 51 52 53 55 56 58 60 62 64 66 67 69 71 72 74 75 75 75 73 70 69 67 65 63
38 39 39 39 40 41 42 43 43 43 44 44 45 45 46 47 48 49 50 51 52 53 55 56 58 60 62 64 66 68 70 71 73 74 75 76 75 74 73 71 67 63 61 59
38 40 40 40 41 42 42 42 42 42 43 44 45 46 46 47 48 49 51 52 53 55 56 58 61 63 65 67 69 70 72 73 75 76 76 75 74 73 71 68 65 61 58 55
39 39 40 41 41 42 42 42 43 44 45 45 46 46 47 48 49 51 52 54 55 57 59 61 63 66 68 69 71 72 74 75 76 76 75 74 73 71 68 65 62 59 55 52
38 38 39 40 40 41 41 42 43 43 44 44 45 46 48 49 50 52 54 56 57 59 62 64 66 68 69 71 73 75 76 76 76 75 74 73 71 68 65 62 59 55 52 49
37 38 38 39 39 40 40 41 42 42 43 45 46 47 49 50 52 54 56 57 60 62 64 67 68 70 71 73 76 77 77 76 75 74 72 70 67 64 62 58 55 52 49 45
36 36 37 37 38 39 40 41 41 43 44 45 47 48 50 52 54 56 58 61 63 64 66 68 70 72 74 75 77 77 76 74 73 71 69 67 64 61 58 55 52 49 46 43
36 37 37 38 38 39 40 41 43 44 46 47 49 51 52 55 57 59 61 63 65 68 69 71 73 74 76 76 76 75 74 72 71 69 66 63 59 56 53 51 48 45 43 41
37 37 38 39 40 41 42 43 45 46 48 50 51 53 55 57 60 62 63 65 67 70 72 73 75 76 77 76 75 73 71 70 68 65 62 58 55 52 49 47 44 42 40 38
38 39 40 41 42 42 44 45 47 48 50 52 54 56 58 60 62 64 66 69 70 72 74 75 76 77 76 75 72 70 68 66 63 60 57 54 51 49 46 44 41 39 37 36
39 40 41 42 43 44 45 47 49 50 52 54 56 59 61 63 65 67 69 70 73 74 76 76 76 75 73 71 69 66 64 62 59 56 53 50 48 46 44 41 38 36 35 34
39 40 41 43 44 45 47 49 50 52 55 57 59 62 64 66 67 70 72 73 75 75 75 74 72 71 69 67 65 63 60 57 55 52 49 47 45 43 40 38 35 34 33 31
40 41 42 44 45 47 49 51 53 55 57 59 62 64 67 69 71 72 73 73 73 73 72 70 69 67 65 63 61 58 55 53 50 48 45 43 41 38 36 34 33 31 30 29
41 42 44 46 48 49 51 53 56 58 60 62 64 67 69 71 72 72 71 70 70 69 68 67 65 63 60 58 55 52 50 48 45 42 41 39 36 34 32 31 30 29 28 27
42 44 46 48 50 53 55 57 59 61 63 66 67 69 70 70 69 69 68 67 67 65 64 62 59 56 54 51 49 47 44 42 39 37 36 34 32 30 29 28 27 27 26 26
Wind_Direction
242 248 251 251 251 254 259 264 267 270 270 274 276 279 281 283 286 288 290 291 291 292 292 293 294 294 294 295 295 295 295 296 296 297 297 298 299 300 300 301 302 303 303 304
243 247 252 254 256 258 261 265 269 270 272 273 275 280 284 286 287 289 290 291 291 292 293 293 294 294 294 295 295 295 296 296 297 298 298 299 300 301 302 303 303 304 305 306
246 248 252 255 260 262 265 267 269 272 274 274 276 280 283 286 288 290 291 291 292 292 293 293 294 294 295 295 295 295 296 297 298 298 299 300 301 302 303 304 305 306 307 307
251 251 254 261 261 263 266 268 271 273 275 276 279 281 283 285 287 289 290 290 291 292 293 293 294 294 295 295 295 296 297 298 298 299 300 301 302 303 304 305 306 307 308 308
254 257 260 261 265 268 269 269 272 275 276 279 281 282 283 285 286 288 289 290 291 292 293 293 294 294 294 295 295 296 297 298 299 300 301 302 303 304 305 306 307 308 309 310
256 260 263 266 268 269 271 272 274 275 276 278 281 282 283 284 286 287 288 289 291 292 292 293 294 294 294 295 296 297 298 299 300 301 302 303 304 305 306 308 309 309 310 311
258 262 264 268 271 273 274 277 277 277 278 280 281 282 283 285 286 287 288 289 291 292 293 293 294 294 295 296 297 298 299 300 301 302 303 305 306 307 308 309 310 310 311 312
259 263 268 272 273 274 276 277 279 281 282 283 283 283 284 286 287 288 289 290 291 293 293 294 295 295 296 297 298 299 300 301 303 304 305 306 307 309 310 310 311 311 312 312
260 264 268 270 273 274 276 278 280 282 284 285 285 285 286 287 288 290 291 292 293 294 294 295 296 296 297 298 299 300 302 303 304 305 306 308 309 310 311 311 311 312 312 312
260 263 267 270 273 275 276 278 281 282 284 285 286 286 287 288 289 291 292 293 294 294 295 295 297 298 299 300 301 302 303 304 305 306 308 309 310 311 312 312 312 312 312 311
261 264 267 269 272 274 276 278 281 282 284 286 286 287 288 289 290 291 292 293 294 295 295 296 298 299 300 301 302 303 304 306 307 308 309 310 311 312 312 312 312 312 312 311
261 264 267 270 271 273 275 278 280 282 284 286 286 287 288 290 291 292 293 294 295 296 297 298 299 300 301 302 303 305 306 307 308 309 309 310 311 311 312 312 312 312 311 311
264 266 268 270 271 273 275 277 280 282 284 286 287 288 289 290 291 292 294 295 296 297 298 299 300 301 302 303 305 306 307 308 308 309 310 311 311 311 312 312 311 311 310 310
265 267 269 271 273 275 277 279 281 282 284 286 287 288 289 291 292 293 294 295 296 298 299 300 301 302 303 305 306 307 308 309 309 310 311 311 311 311 312 312 311 310 309 309
266 267 269 271 274 276 278 280 281 283 284 286 287 288 290 291 293 294 295 296 297 299 300 300 302 303 304 305 306 307 308 309 310 310 311 311 311 311 311 311 311 310 309 308
267 269 271 273 275 277 279 280 282 283 285 286 288 289 291 292 293 295 296 297 298 300 301 301 302 304 305 305 306 307 308 309 310 310 310 310 310 310 310 310 309 309 309 308
268 271 273 275 276 278 279 281 282 284 285 287 288 290 292 293 294 296 297 298 300 301 301 302 303 304 305 306 307 308 308 309 309 309 310 310 310 309 309 309 309 308 308 307
270 272 274 276 277 279 280 282 284 285 286 288 290 291 293 294 296 297 298 299 300 301 302 303 304 305 305 306 307 308 308 309 309 309 309 309 309 309 308 308 308 308 307 306
271 273 275 276 278 280 282 284 285 287 288 290 291 293 295 296 297 298 299 300 301 302 302 303 304 305 306 306 307 307 308 308 309 309 309 308 308 308 307 307 307 307 306 305
272 274 276 277 279 281 283 284 286 288 289 291 292 294 295 297 298 299 300 301 302 302 303 304 304 305 306 306 307 307 308 308 308 308 308 308 307 307 307 307 306 305 304 304
273 275 276 278 280 282 284 286 287 289 291 292 294 295 296 297 298 300 301 302 302 303 304 304 305 305 306 306 307 307 307 307 308 308 307 307 307 307 306 306 305 304 303 304
273 276 278 279 281 283 285 287 288 290 291 293 294 296 297 298 299 300 301 302 303 303 304 305 305 305 306 306 306 307 307 307 307 307 307 306 306 306 306 305 304 303 303 303
274 276 278 280 282 285 286 288 290 291 293 294 296 297 298 299 300 301 301 302 303 304 304 305 305 305 305 306 306 306 307 307 307 307 307 306 306 305 305 304 303 302 302 302
276 278 280 282 284 286 288 289 291 293 294 296 297 298 299 300 301 301 302 303 303 304 305 305 305 305 305 305 306 306 306 306 306 306 306 306 305 305 304 303 302 301 301 301
278 280 282 284 286 288 289 291 292 294 295 297 298 299 300 301 302 302 303 303 304 305 305 305 305 305 305 305 305 305 305 306 306 305 306 306 305 305 304 303 302 302 301 302
281 283 285 287 288 290 291 293 294 296 297 298 299 300 301 302 302 303 303 304 305 305 306 306 306 305 305 305 305 305 305 305 305 305 306 306 306 305 304 303 303 303 302 303
283 286 288 289 291 292 294 295 297 298 299 300 301 301 302 302 303 303 304 305 306 306 307 307 306 306 306 306 306 306 305 305 304 305 306 306 307 306 305 304 304 304 304 304
Height
5718 5719 5722 5724 5726 5728 5729 5730 5730 5732 5731 5731 5728 5727 5728 5727 5725 5724 5722 5720 5717 5714 5711 5708 5705 5701 5698 5694 5690 5686 5682 5678 5674 5669 5665 5660 5654 5649 5643 5637 5630 5623 5616 5608
5711 5713 5714 5716 5719 5721 5722 5723 5723 5723 5724 5723 5721 5719 5718 5717 5716 5714 5712 5710 5707 5703 5700 5697 5694 5690 5687 5683 5679 5674 5670 5666 5661 5656 5651 5646 5640 5634 5628 5621 5614 5607 5599 5591
5704 5706 5706 5709 5713 5714 5714 5715 5715 5714 5716 5714 5713 5712 5710 5707 5706 5704 5702 5699 5696 5693 5690 5686 5683 5679 5675 5671 5667 5662 5658 5653 5648 5643 5637 5631 5625 5619 5612 5605 5598 5590 5582 5573
5695 5698 5698 5706 5705 5706 5706 5707 5707 5706 5706 5705 5704 5702 5701 5699 5696 5693 5691 5688 5685 5682 5679 5675 5671 5667 5663 5659 5655 5650 5645 5640 5635 5629 5623 5617 5611 5604 5597 5589 5581 5573 5564 5555
5687 5688 5691 5695 5697 5698 5698 5699 5699 5697 5696 5695 5694 5692 5691 5689 5686 5683 5681 5678 5675 5671 5668 5664 5660 5656 5651 5647 5642 5637 5632 5627 5621 5615 5609 5602 5596 5588 5581 5573 5564 5555 5546 5536
5679 5680 5682 5688 5688 5688 5689 5689 5690 5688 5686 5685 5684 5683 5682 5678 5675 5673 5670 5667 5663 5660 5656 5652 5648 5644 5639 5634 5629 5624 5619 5613 5607 5600 5594 5587 5580 5572 5564 5555 5546 5537 5528 5517
5671 5671 5674 5678 5678 5678 5680 5681 5679 5677 5676 5675 5673 5672 5670 5667 5664 5661 5659 5655 5652 5648 5644 5640 5635 5631 5627 5622 5616 5611 5605 5599 5593 5586 5579 5571 5564 5555 5546 5538 5529 5520 5510 5499
5662 5663 5668 5670 5669 5669 5669 5668 5667 5666 5665 5664 5662 5660 5658 5655 5653 5650 5647 5643 5640 5636 5632 5627 5623 5618 5614 5608 5603 5597 5591 5585 5578 5571 5563 5555 5547 5538 5528 5519 5510 5500 5490 5481
5655 5658 5659 5659 5659 5658 5658 5657 5656 5655 5654 5652 5650 5648 5646 5644 5641 5638 5635 5631 5627 5623 5619 5614 5610 5605 5600 5594 5589 5583 5577 5570 5563 5555 5547 5538 5529 5520 5511 5500 5490 5480 5470 5461
5646 5647 5648 5648 5648 5648 5647 5646 5646 5644 5643 5641 5639 5637 5635 5632 5629 5626 5623 5619 5615 5611 5606 5601 5596 5591 5586 5580 5574 5568 5561 5554 5547 5539 5531 5522 5512 5502 5492 5482 5471 5461 5451 5442
5636 5638 5638 5638 5638 5637 5637 5636 5635 5633 5631 5629 5628 5625 5623 5620 5617 5614 5610 5606 5602 5598 5593 5588 5583 5578 5572 5565 5559 5553 5546 5538 5530 5522 5513 5505 5496 5485 5474 5464 5451 5441 5432 5423
5627 5628 5628 5629 5628 5627 5626 5625 5623 5622 5620 5618 5616 5614 5611 5608 5605 5601 5598 5593 5589 5585 5580 5575 5569 5564 5557 5550 5544 5537 5530 5522 5514 5505 5496 5486 5477 5469 5458 5446 5436 5424 5413 5404
5617 5617 5617 5617 5617 5616 5615 5614 5612 5610 5609 5606 5604 5602 5599 5596 5592 5589 5585 5580 5576 5571 5566 5561 5555 5549 5542 5535 5528 5520 5513 5504 5496 5487 5477 5468 5458 5448 5441 5433 5421 5409 5398 5388
5606 5606 5606 5607 5606 5605 5604 5602 5601 5599 5597 5595 5592 5590 5587 5583 5580 5576 5572 5567 5563 5558 5552 5546 5540 5533 5526 5519 5512 5504 5495 5487 5477 5468 5459 5449 5439 5429 5420 5411 5405 5397 5386 5374
5596 5596 5596 5595 5595 5594 5592 5591 5590 5588 5586 5583 5580 5577 5574 5571 5567 5563 5558 5554 5549 5543 5537 5531 5525 5518 5510 5503 5495 5487 5478 5469 5459 5450 5440 5430 5420 5411 5401 5393 5385 5378 5371 5362
5584 5584 5584 5584 5583 5582 5581 5580 5578 5576 5574 5571 5568 5565 5562 5558 5554 5550 5545 5540 5535 5529 5523 5516 5509 5502 5494 5486 5477 5469 5461 5451 5440 5431 5421 5412 5402 5393 5384 5376 5368 5360 5354 5347
5574 5574 5574 5573 5572 5571 5570 5568 5566 5564 5562 5559 5556 5553 5549 5545 5541 5536 5531 5526 5520 5514 5507 5499 5493 5485 5477 5468 5459 5451 5442 5433 5422 5412 5403 5393 5384 5375 5367 5359 5352 5345 5339 5332
5563 5563 5563 5562 5561 5560 5558 5556 5554 5552 5549 5547 5544 5540 5536 5532 5528 5523 5517 5512 5506 5499 5491 5483 5475 5468 5459 5450 5440 5432 5422 5413 5404 5394 5384 5375 5366 5358 5350 5343 5336 5330 5324 5319
5552 5552 5552 5551 5550 5548 5547 5545 5543 5540 5537 5534 5531 5527 5523 5518 5513 5508 5503 5497 5490 5483 5476 5467 5458 5450 5441 5431 5421 5412 5403 5394 5385 5375 5366 5358 5350 5342 5334 5328 5321 5316 5310 5306
5542 5542 5541 5540 5539 5537 5536 5533 5531 5528 5525 5522 5518 5514 5509 5504 5498 5493 5487 5481 5472 5464 5458 5449 5441 5431 5422 5413 5403 5393 5384 5375 5366 5358 5349 5341 5333 5327 5320 5313 5308 5302 5298 5293
5532 5531 5530 5529 5528 5526 5524 5521 5519 5516 5512 5508 5504 5500 5495 5490 5483 5477 5470 5465 5457 5446 5439 5430 5421 5412 5402 5393 5384 5375 5366 5357 5348 5340 5332 5325 5318 5312 5306 5300 5295 5290 5285 5281
5521 5520 5519 5518 5516 5514 5512 5509 5506 5503 5499 5494 5490 5484 5479 5474 5467 5461 5453 5445 5438 5429 5420 5411 5402 5392 5382 5373 5365 5356 5348 5339 5331 5323 5316 5310 5303 5298 5292 5287 5282 5278 5274 5270
5510 5509 5507 5506 5504 5502 5499 5496 5493 5489 5485 5480 5474 5468 5463 5457 5450 5442 5437 5428 5418 5409 5401 5392 5382 5372 5363 5354 5346 5338 5330 5322 5315 5308 5301 5295 5290 5284 5279 5275 5270 5267 5263 5259
5498 5497 5496 5494 5492 5489 5486 5483 5479 5474 5470 5465 5458 5451 5445 5439 5433 5424 5415 5408 5399 5389 5381 5372 5362 5353 5344 5336 5329 5321 5314 5307 5300 5293 5287 5282 5276 5271 5267 5263 5259 5256 5253 5249
5487 5485 5483 5481 5479 5476 5472 5469 5464 5459 5454 5449 5442 5434 5427 5419 5412 5405 5396 5388 5379 5369 5361 5353 5344 5335 5326 5319 5312 5305 5298 5292 5286 5280 5274 5269 5264 5260 5256 5252 5249 5246 5243 5240
5475 5473 5471 5468 5465 5462 5458 5453 5449 5443 5437 5432 5426 5418 5409 5401 5392 5384 5376 5368 5359 5351 5342 5334 5326 5318 5310 5303 5296 5290 5284 5278 5273 5267 5262 5258 5253 5249 5246 5243 5240 5237 5234 5231
5462 5460 5457 5454 5450 5446 5442 5437 5432 5426 5419 5412 5407 5399 5390 5382 5373 5365 5357 5349 5342 5333 5325 5317 5309 5301 5294 5288 5282 5276 5271 5266 5261 5256 5252 5248 5244 5241 5238 5234 5231 5229 5226 5223